TimeCST,TemperatureF,Dew PointF,Humidity,Sea Level PressureIn,VisibilityMPH,Wind Direction,Wind SpeedMPH,Gust SpeedMPH,PrecipitationIn,Events,Conditions,WindDirDegrees,DateUTC
12:53 AM,-0.0,-5.1,79,30.32,8.0,WNW,3.5,-,N/A,,Clear,290,2013-01-01 06:53:00
1:53 AM,-2.2,-5.8,85,30.26,8.0,WNW,3.5,-,N/A,,Clear,290,2013-01-01 07:53:00
2:53 AM,-0.9,-6.0,79,30.33,8.0,WNW,3.5,-,N/A,,Clear,290,2013-01-01 08:53:00
3:53 AM,-0.9,-6.0,79,30.33,8.0,SSW,3.5,-,N/A,,Clear,210,2013-01-01 09:53:00
4:53 AM,-2.9,-7.1,82,30.34,9.0,Calm,Calm,-,N/A,,Clear,0,2013-01-01 10:53:00
5:53 AM,-4.0,-7.6,85,30.28,8.0,SSW,3.5,-,N/A,,Clear,210,2013-01-01 11:53:00
6:53 AM,-5.1,-9.0,83,30.34,9.0,SSW,4.6,-,N/A,,Clear,210,2013-01-01 12:53:00
7:53 AM,-5.1,-9.0,83,30.33,7.0,Calm,Calm,-,N/A,,Partly Cloudy,0,2013-01-01 13:53:00
8:53 AM,-5.1,-8.0,87,30.32,8.0,South,3.5,-,N/A,,Scattered Clouds,190,2013-01-01 14:53:00
9:53 AM,-2.9,-6.0,87,30.32,8.0,South,3.5,-,N/A,,Partly Cloudy,180,2013-01-01 15:53:00
10:39 AM,1.4,-4.0,78,30.24,9.0,South,5.8,-,N/A,,Mostly Cloudy,170,2013-01-01 16:39:00
10:53 AM,1.9,-2.9,80,30.30,9.0,Calm,Calm,-,N/A,,Mostly Cloudy,0,2013-01-01 16:53:00
11:53 AM,5.0,-2.2,72,30.20,10.0,SSW,4.6,-,N/A,,Overcast,200,2013-01-01 17:53:00
12:53 PM,8.1,-0.9,67,30.25,10.0,SSW,4.6,-,N/A,,Overcast,200,2013-01-01 18:53:00
1:25 PM,8.6,-0.4,67,30.16,10.0,SSW,4.6,-,N/A,,Overcast,200,2013-01-01 19:25:00
1:53 PM,10.9,1.9,67,30.22,10.0,SSW,8.1,-,0.00,Snow,Light Snow,210,2013-01-01 19:53:00
2:53 PM,12.2,6.8,79,30.15,6.0,SW,9.2,-,N/A,Snow,Light Snow,230,2013-01-01 20:53:00
3:53 PM,12.0,7.0,80,30.21,6.0,SW,5.8,-,0.00,Snow,Light Snow,230,2013-01-01 21:53:00
4:04 PM,12.2,6.8,79,30.15,7.0,SW,4.6,-,0.00,Snow,Light Snow,220,2013-01-01 22:04:00
4:49 PM,12.2,8.6,85,30.14,7.0,South,3.5,-,0.00,Snow,Light Snow,190,2013-01-01 22:49:00
4:53 PM,12.9,8.1,81,30.20,8.0,SSW,4.6,-,0.00,Snow,Light Snow,210,2013-01-01 22:53:00
5:51 PM,14.0,8.6,79,30.12,9.0,SSW,3.5,-,0.00,Snow,Light Snow,200,2013-01-01 23:51:00
5:53 PM,14.0,9.0,80,30.18,9.0,Variable,3.5,-,0.00,Snow,Light Snow,0,2013-01-01 23:53:00
6:53 PM,15.1,10.9,84,30.17,10.0,SSW,5.8,-,0.00,,Overcast,210,2013-01-02 00:53:00
7:20 PM,15.8,10.4,79,30.09,10.0,SSW,4.6,-,N/A,,Overcast,200,2013-01-02 01:20:00
7:53 PM,16.0,12.0,84,30.15,10.0,SSW,5.8,-,N/A,,Overcast,200,2013-01-02 01:53:00
8:53 PM,18.0,14.0,84,30.13,10.0,SW,5.8,-,N/A,,Overcast,220,2013-01-02 02:53:00
9:25 PM,17.6,15.8,93,30.06,10.0,SSW,4.6,-,N/A,,Overcast,200,2013-01-02 03:25:00
9:53 PM,19.0,15.1,85,30.11,10.0,South,4.6,-,N/A,,Overcast,190,2013-01-02 03:53:00
10:53 PM,19.9,16.0,85,30.09,10.0,SSW,10.4,-,N/A,,Overcast,210,2013-01-02 04:53:00
11:53 PM,19.9,16.0,85,30.09,9.0,SW,8.1,-,N/A,,Overcast,220,2013-01-02 05:53:00